ATLAS 5 CENTAUR DEB, 43951

Orbit data source: Space-Track

ATLAS 5 CENTAUR DEB, 43951 is space debris in HEO originally from a launch on Wed, 17 Sep 2014 UTC launched from the Air Force Eastern Test Range (AFETR). Debris objects in space refer to the collection of defunct objects orbiting the Earth. Examples of debris include non-operational satellites, rocket bodies, and fragments generated from explosions, collisions, or faulty payload assembly.

Loading next visibility...
Identifier
43951, 2014-055E
Orbit
HEO
Country
Flag of USUS
Related business
Flag of USUnited Launch Alliance/Lockheed Martin (US)
Manufacturer
Unknown
Mission
Spacecraft
Bus & Motor
Unknown
Mass
Unknown
Launch date (UTC)
2014-09-17 (11 years ago)
Launch vehicle
Unknown
Launch site
Air Force Eastern Test Range (AFETR)
Object type
Payload
Rocket body
Debris
Shape & HBR
Unknown shape, 1.1 m
Radar Cross Section
Small (<0.1 m²)

Expand to show TLE details & history
Last TLE update: 1 day ago

TLE from 1 day ago
0 ATLAS 5 CENTAUR DEB
1 43951U 14055E   25292.64170029 -.00000004  00000-0  00000-0 0  9991
2 43951  20.2650 147.6667 4917959 159.7045 229.9257  1.89458690 49336
Epoch: 2025-10-19T15:24Z
TLE epoch observation values (Epoch: 2025-10-19T15:24:02.905Z)
Latitude
-0.00001°
Longitude
-111.64717°
Altitude
32,431.241 km
Speed
2.469 km/s
True Right ascension
09h 50m 52s
True Declination
0° 00' 00"
Sunlit
Object was in daylight at epoch
Visualization orbit readout
Latitude
Unknown
Longitude
Unknown
Altitude
Unknown
Speed
Unknown
Apparent Right ascension
Unknown
Apparent Declination
Unknown
Sunlit
N/A
Visualization observer readout
Local Sidereal Time
14:07:28
Azimuth
Unknown
Elevation
Unknown
Doppler factor
Unknown
Orbital elements
Apogee altitude
34,781.012 km
Perigee altitude
7,643.384 km
Semi-major axis
27,590.335 km
Eccentricity
0.4918
Inclination
20.265°
RAAN
147.6667°
Arg. of periapsis
159.7045°
True anomaly
200.30948°
Mean anomaly
229.9257°
Eccentric anomaly
214.11998°
Mean motion
0.4736 °/min
Orbital period
760.14 mins
BSTAR
0
Loading maneuver chart data...
Computing Atmospheric mass density...

Documentation

Showing up to 5 results
|